Satellite: CO-58
Catalog number: 28895
Epoch time:      10273.39264466
Element set:     692
Inclination:      097.9967 deg
RA of node:       154.2936 deg
Eccentricity:    0.0016930
Arg of perigee:   318.0130 deg
Mean anomaly:     041.9792 deg
Mean motion:   14.59939364 rev/day
Decay rate:       2.06e-06 rev/day^2
Epoch rev:           26233
Checksum:              346

Satellite: FALCON
Catalog number: 30776
Epoch time:      10273.91434565
Element set:     926
Inclination:      035.4328 deg
RA of node:       122.3227 deg
Eccentricity:    0.0001900
Arg of perigee:   348.5116 deg
Mean anomaly:     011.5556 deg
Mean motion:   15.03845811 rev/day
Decay rate:      1.121e-05 rev/day^2
Epoch rev:           19598
Checksum:              276

Satellite: MAST
Catalog number: 31126
Epoch time:      10273.67728617
Element set:     976
Inclination:      097.9268 deg
RA of node:       310.1802 deg
Eccentricity:    0.0093438
Arg of perigee:   258.2401 deg
Mean anomaly:     100.8317 deg
Mean motion:   14.53624077 rev/day
Decay rate:       1.36e-06 rev/day^2
Epoch rev:           18338
Checksum:              298

Satellite: CAPE1
Catalog number: 31130
Epoch time:      10273.34834137
Element set:     994
Inclination:      097.9294 deg
RA of node:       307.0739 deg
Eccentricity:    0.0101463
Arg of perigee:   268.1670 deg
Mean anomaly:     090.7873 deg
Mean motion:   14.52227588 rev/day
Decay rate:       1.44e-06 rev/day^2
Epoch rev:           18292
Checksum:              309

Satellite: COMPASS
Catalog number: 32787
Epoch time:      10273.29842074
Element set:     790
Inclination:      097.8830 deg
RA of node:       336.5545 deg
Eccentricity:    0.0015050
Arg of perigee:   306.8127 deg
Mean anomaly:     053.1662 deg
Mean motion:   14.81983142 rev/day
Decay rate:       7.92e-06 rev/day^2
Epoch rev:           13106
Checksum:              298

Satellite: AAUSAT2
Catalog number: 32788
Epoch time:      10272.61602595
Element set:    0781
Inclination:      097.8840 deg
RA of node:       336.0346 deg
Eccentricity:    0.0014677
Arg of perigee:   310.1860 deg
Mean anomaly:     049.8126 deg
Mean motion:   14.82131418 rev/day
Decay rate:       8.71e-06 rev/day^2
Epoch rev:           13097
Checksum:              305

Satellite: DO-64
Catalog number: 32789
Epoch time:      10273.76051641
Element set:     799
Inclination:      097.8909 deg
RA of node:       337.7606 deg
Eccentricity:    0.0014559
Arg of perigee:   303.1095 deg
Mean anomaly:     056.8705 deg
Mean motion:   14.82334228 rev/day
Decay rate:      1.327e-05 rev/day^2
Epoch rev:           13114
Checksum:              326

Satellite: CO-66
Catalog number: 32791
Epoch time:      10273.20114564
Element set:     783
Inclination:      097.8848 deg
RA of node:       336.4602 deg
Eccentricity:    0.0015403
Arg of perigee:   305.8243 deg
Mean anomaly:     054.1587 deg
Mean motion:   14.81748137 rev/day
Decay rate:       2.34e-06 rev/day^2
Epoch rev:           13100
Checksum:              292

Satellite: RS-30
Catalog number: 32953
Epoch time:      10273.65072943
Element set:      90
Inclination:      082.5048 deg
RA of node:       324.1077 deg
Eccentricity:    0.0017736
Arg of perigee:   229.7441 deg
Mean anomaly:     130.2090 deg
Mean motion:   12.43008021 rev/day
Decay rate:        1.0e-07 rev/day^2
Epoch rev:           10684
Checksum:              254

Satellite: TACSAT-3
Catalog number: 35001
Epoch time:      10272.55644394
Element set:    0408
Inclination:      040.4562 deg
RA of node:       306.7240 deg
Eccentricity:    0.0021019
Arg of perigee:   063.8756 deg
Mean anomaly:     296.4220 deg
Mean motion:   15.42869184 rev/day
Decay rate:      7.552e-05 rev/day^2
Epoch rev:           07675
Checksum:              293

Satellite: PHARMSAT
Catalog number: 35002
Epoch time:      10272.47811859
Element set:     370
Inclination:      040.4706 deg
RA of node:       304.8716 deg
Eccentricity:    0.0023842
Arg of perigee:   066.5413 deg
Mean anomaly:     293.7906 deg
Mean motion:   15.43274724 rev/day
Decay rate:      6.386e-05 rev/day^2
Epoch rev:            7676
Checksum:              301

Satellite: HAWKSAT1
Catalog number: 35003
Epoch time:      10272.46795593
Element set:     401
Inclination:      040.4598 deg
RA of node:       296.2392 deg
Eccentricity:    0.0021558
Arg of perigee:   087.2326 deg
Mean anomaly:     273.0956 deg
Mean motion:   15.47511605 rev/day
Decay rate:     1.5177e-04 rev/day^2
Epoch rev:            7686
Checksum:              311

Satellite: CP6
Catalog number: 35004
Epoch time:      10272.46087459
Element set:     397
Inclination:      040.4601 deg
RA of node:       294.3942 deg
Eccentricity:    0.0020573
Arg of perigee:   092.2492 deg
Mean anomaly:     268.0682 deg
Mean motion:   15.48785281 rev/day
Decay rate:     1.8639e-04 rev/day^2
Epoch rev:            7687
Checksum:              328

Satellite: AEROCUB3
Catalog number: 35005
Epoch time:      10273.47735782
Element set:     468
Inclination:      040.4682 deg
RA of node:       278.4571 deg
Eccentricity:    0.0019824
Arg of perigee:   126.4765 deg
Mean anomaly:     233.7887 deg
Mean motion:   15.60378511 rev/day
Decay rate:     8.1235e-04 rev/day^2
Epoch rev:            7714
Checksum:              323

